Theta_e
348 346 346 348 349 348 345 341 337 332 334 339 340 348 349 349 350 348 348 349 348 347 347 347 349 350 350 352 354 354 355 355 355 354 353 354 355 357
349 348 348 349 348 348 346 344 340 337 333 341 344 346 348 350 351 349 349 349 347 346 344 344 345 347 348 349 349 349 349 349 349 348 348 348 350 351
348 347 348 347 346 346 347 346 342 338 334 341 345 347 345 346 349 347 350 348 348 344 343 342 342 344 345 346 345 345 345 344 344 345 346 347 347 348
346 346 346 350 346 348 347 344 345 344 341 336 342 343 344 346 346 346 346 349 345 345 342 340 340 340 341 341 341 340 339 339 340 341 342 344 345 345
347 345 346 345 346 346 346 344 344 343 343 340 336 342 343 344 345 350 345 345 345 345 340 339 339 339 339 337 336 335 334 334 334 335 337 338 340 341
345 346 346 346 344 345 344 338 338 338 340 334 335 338 338 341 344 343 342 346 348 350 346 341 340 339 337 334 334 334 332 331 330 330 330 331 333 334
341 342 345 345 344 343 344 339 334 334 337 338 338 339 340 342 340 344 340 343 344 346 344 342 340 339 338 336 339 338 333 330 329 328 328 327 326 326
337 337 342 342 340 340 341 341 341 338 335 337 338 336 339 342 344 344 342 337 337 349 344 343 343 341 343 341 339 337 333 331 329 327 326 326 326 325
338 337 338 342 339 339 338 339 339 339 341 341 338 339 339 343 344 342 342 341 340 346 345 340 347 342 343 344 336 335 331 329 327 325 324 323 323 323
340 337 335 333 335 334 333 334 337 338 338 340 341 343 344 344 347 345 344 343 344 346 346 337 343 340 337 334 333 330 327 325 324 323 322 321 319 319
343 341 339 336 333 333 333 331 333 339 336 335 340 337 335 336 341 345 342 340 337 339 346 342 342 336 333 330 328 327 324 322 321 321 321 320 318 318
345 344 337 338 329 328 334 332 330 331 336 330 331 332 333 334 335 342 344 340 338 336 342 339 341 337 331 331 328 324 321 318 317 317 318 317 316 322
343 344 342 330 324 323 330 336 335 336 334 330 330 334 336 334 337 335 343 340 336 336 339 342 337 336 331 326 324 321 321 317 317 316 314 313 312 317
339 344 344 325 320 321 326 327 323 326 327 325 323 323 326 333 336 334 334 338 340 335 335 342 330 332 327 324 323 324 324 319 317 315 314 312 310 311
329 330 324 322 319 322 324 322 321 321 322 320 320 323 326 331 334 334 335 335 334 336 337 334 331 328 325 325 325 324 323 320 320 317 317 310 307 308
323 324 324 323 324 324 320 320 320 320 319 317 316 318 322 330 332 335 333 330 328 327 330 332 330 329 325 323 321 324 323 321 322 320 316 311 313 315
327 322 320 320 322 323 321 321 319 320 320 320 319 319 322 329 330 334 329 327 323 324 323 325 327 329 329 324 318 320 321 319 323 320 316 316 317 319
326 324 321 321 322 323 323 322 322 323 320 320 319 319 319 322 327 331 328 325 321 322 322 323 324 322 321 320 325 319 319 320 319 320 319 316 315 316
324 325 325 324 325 326 327 327 325 325 325 322 322 325 324 322 321 322 322 323 320 320 318 325 324 319 316 312 318 321 317 317 320 318 319 316 315 316
323 322 321 323 327 328 326 326 325 326 325 323 323 324 323 320 318 317 319 318 317 317 316 320 322 321 317 315 315 319 314 318 321 318 317 316 314 317
320 323 325 325 325 326 326 328 327 325 323 322 322 323 323 321 319 319 319 315 317 317 316 316 322 324 323 321 316 313 318 312 319 319 317 314 309 309
326 324 321 321 321 320 322 326 326 322 323 322 321 320 320 321 319 317 317 317 316 317 319 321 318 320 320 318 314 313 314 314 311 314 320 319 313 307
320 319 318 318 318 319 319 318 317 319 319 320 320 318 319 319 318 318 318 317 317 317 315 314 316 318 315 315 314 313 313 314 310 309 310 314 318 317
Wind_Speed
6 7 6 4 7 6 4 4 5 4 7 5 5 11 8 9 11 11 15 20 23 22 21 20 20 18 17 16 15 14 13 12 10 10 11 12 12 13
5 6 5 6 7 5 5 6 4 4 4 5 7 4 12 7 8 11 12 19 25 24 23 22 21 20 19 18 16 15 14 13 12 12 12 13 12 13
5 6 8 6 5 5 6 4 5 4 3 1 3 3 7 10 8 9 9 11 12 20 21 21 21 21 21 20 18 17 15 13 13 14 13 12 13 12
6 6 7 5 7 8 7 6 8 6 3 3 2 3 5 5 8 10 10 10 11 19 20 21 21 21 20 19 18 16 15 14 14 12 13 13 13 13
6 6 7 6 7 4 4 5 8 6 5 5 2 4 4 2 4 4 8 11 9 13 22 23 22 21 19 17 16 15 14 14 17 13 13 12 12 13
1 4 5 5 4 7 9 7 7 7 7 7 4 4 3 5 3 3 5 2 6 8 12 15 19 19 17 16 16 17 17 15 14 15 13 12 12 11
3 3 4 5 5 5 8 7 8 5 5 4 2 1 2 3 7 3 5 4 4 4 2 3 4 7 9 12 14 18 17 16 13 12 12 11 11 9
5 3 4 7 10 11 9 5 5 7 4 3 2 2 1 2 1 4 5 4 4 3 5 4 6 6 6 7 15 12 13 11 11 11 10 10 10 9
5 5 5 4 6 8 10 12 8 7 5 4 4 4 4 5 4 4 3 4 4 3 4 4 5 3 3 4 13 14 13 12 11 11 10 9 8 7
6 6 5 6 7 7 5 5 6 6 6 5 5 5 4 5 5 6 7 4 2 3 3 4 3 3 3 1 8 14 14 14 13 12 11 9 8 7
7 7 7 6 7 9 6 5 5 5 7 8 8 8 8 8 6 3 4 4 3 4 3 4 3 3 2 2 3 7 9 11 11 10 9 9 8 7
6 7 12 9 14 11 6 6 5 5 5 3 2 4 5 5 7 5 3 5 3 2 5 5 4 4 3 3 3 3 3 5 9 10 10 9 9 4
5 5 6 13 13 14 11 6 6 5 6 5 5 4 4 5 4 4 4 4 4 4 3 6 4 4 3 3 3 4 6 4 4 4 7 8 9 7
3 4 5 12 13 14 11 8 9 5 3 3 3 4 4 4 5 5 5 3 2 4 0 6 3 5 5 3 4 3 5 3 3 3 4 5 7 7
3 4 9 12 12 10 11 10 7 3 3 2 3 4 4 6 4 3 4 6 4 3 2 3 4 3 4 4 5 5 5 5 4 4 4 4 4 3
3 3 3 6 7 5 5 5 4 4 5 4 4 4 3 4 6 5 4 4 3 0 2 6 6 4 2 1 3 4 4 6 6 5 4 3 3 3
3 2 3 3 4 4 3 4 4 4 4 4 3 3 3 2 3 6 4 3 3 4 2 1 3 4 4 4 2 3 4 3 6 6 4 4 3 4
5 3 3 4 5 5 5 5 5 7 5 5 4 4 3 3 3 1 3 3 4 4 4 3 2 2 3 3 5 3 2 4 5 7 4 4 3 3
4 5 5 5 4 6 6 7 7 7 7 5 5 4 3 1 3 3 3 4 3 4 4 4 4 3 3 4 3 7 5 3 4 4 4 3 6 6
5 4 4 5 4 4 4 4 3 5 7 6 4 4 4 3 2 3 4 4 4 3 3 3 4 4 5 6 4 4 12 5 4 4 5 2 3 6
4 3 3 4 4 4 4 4 4 3 3 4 3 3 4 4 3 4 4 6 6 4 5 4 7 14 5 4 2 3 2 9 5 6 5 5 4 3
3 4 3 3 3 2 1 2 2 2 5 6 4 1 3 4 4 5 5 5 5 5 5 6 5 5 4 7 6 5 3 0 2 2 6 12 8 6
2 3 3 3 3 2 3 4 6 6 5 5 5 4 3 3 3 4 5 5 4 5 6 4 3 3 4 5 7 5 5 4 4 5 3 7 8 9
Wind_Direction
229 222 214 209 224 212 186 166 165 178 218 219 171 206 212 211 208 202 207 198 196 196 198 201 202 201 208 216 220 223 224 228 234 241 248 254 260 264
224 226 231 230 215 208 198 183 177 160 210 190 211 182 205 223 207 188 189 192 194 195 197 199 202 204 207 212 215 218 222 227 232 240 246 248 252 258
230 226 242 234 221 212 210 163 191 165 187 336 235 186 213 202 191 185 186 190 197 200 199 201 204 206 209 213 216 218 220 223 227 234 241 244 246 249
239 241 249 244 228 212 200 190 179 157 186 173 249 255 199 226 211 181 191 195 197 199 201 203 207 209 212 214 215 214 216 221 231 234 232 236 241 249
251 253 253 235 241 202 154 133 128 140 142 119 294 240 243 173 232 192 186 198 195 193 204 210 209 210 211 210 213 214 214 219 223 226 232 233 236 242
165 291 271 228 207 132 124 138 139 133 145 154 192 224 210 228 229 188 213 192 181 207 210 209 214 215 210 207 208 209 214 219 221 226 227 228 234 240
120 46 83 61 94 127 139 156 140 132 131 132 105 206 216 174 196 187 201 195 230 172 162 210 190 198 204 205 222 220 216 214 215 217 221 224 228 230
158 128 124 122 112 119 116 135 168 149 147 129 111 178 265 10 316 214 203 184 233 192 151 216 175 199 210 207 212 209 200 200 202 207 214 215 211 215
161 154 167 159 142 137 139 133 121 98 98 137 159 186 170 195 206 216 223 197 207 238 175 207 185 198 229 215 199 186 182 181 181 179 180 187 193 202
175 177 176 176 171 163 161 168 175 167 187 187 204 178 190 218 215 185 187 169 187 241 154 191 144 170 182 188 196 166 164 166 168 172 175 179 183 191
192 185 181 182 198 175 160 181 196 205 196 202 197 208 197 208 210 171 174 138 202 225 194 141 163 118 122 190 193 185 164 165 163 163 170 173 176 171
202 195 193 186 178 182 182 177 190 225 183 165 213 253 234 243 253 236 177 176 167 203 215 149 148 135 166 175 179 156 153 175 173 176 177 181 174 167
198 194 199 202 185 185 187 188 205 195 197 177 203 216 217 226 227 228 227 170 184 225 224 162 160 158 119 144 175 173 178 175 184 190 193 189 188 184
213 214 211 196 186 189 188 190 174 146 150 173 190 231 231 222 222 214 218 195 164 162 258 180 161 158 133 146 181 158 198 192 159 185 189 197 219 215
172 255 270 206 193 189 188 173 162 163 170 198 233 250 231 238 203 164 151 162 147 128 107 65 112 111 123 156 169 167 131 198 183 158 175 184 182 191
171 146 147 151 178 150 133 167 186 198 191 201 228 244 261 239 200 156 155 173 127 214 89 124 106 96 90 88 134 148 173 166 167 183 173 187 204 189
186 124 113 127 155 163 193 202 205 212 217 221 220 249 278 255 187 171 145 142 150 167 198 356 61 102 121 137 108 157 153 139 174 168 134 189 221 189
174 182 179 179 182 181 183 199 204 212 220 219 215 211 227 235 201 152 112 147 161 169 170 177 149 72 30 338 159 158 155 168 170 168 156 153 172 198
198 206 194 193 197 197 195 199 208 209 209 203 197 192 175 158 149 171 157 150 158 169 175 168 164 145 149 194 274 200 158 170 157 170 166 157 178 186
202 189 195 177 189 205 189 185 210 198 196 192 184 162 152 158 164 172 176 164 159 167 170 152 176 185 175 185 190 244 186 155 164 180 180 100 93 74
204 209 192 198 196 204 202 206 205 228 173 154 158 177 181 168 194 208 197 184 177 177 201 211 199 199 194 103 125 298 306 213 165 163 168 141 154 141
207 172 165 146 153 169 207 235 232 179 185 170 166 171 231 200 203 211 215 198 204 201 217 228 205 159 167 183 192 190 222 206 139 65 179 164 159 178
205 119 115 124 149 147 131 129 130 125 107 80 81 90 21 272 280 259 246 218 210 212 205 206 186 159 190 185 176 191 191 200 165 183 241 212 178 181